Weather History for KD55 - November, 2012

Change the Weather History Date:

Sunday, November 18, 2012

  Actual Average (KDVL) Record (KDVL)
Temperature  
Mean Temperature 25 °F -  
Max Temperature 33 °F 31 °F 52 °F (1963)
Min Temperature 17 °F 17 °F -8 °F (1986)
Degree Days  
Heating Degree Days 40    
Moisture  
Dew Point 26 °F    
Average Humidity 100    
Maximum Humidity 100    
Minimum Humidity 100    
Precipitation  
Precipitation 0.00 in - - ()
Sea Level Pressure  
Sea Level Pressure 29.91 in    
Wind  
Wind Speed 7 mph (SE)    
Max Wind Speed 15 mph    
Max Gust Speed -    
Visibility 3 miles    
Events Fog , Rain    
Averages and records for this station are not official NWS values.
T = Trace of Precipitation, MM = Missing Value Source: NWS Daily Summary

Daily Weather History Graph

Daily Weather History Graph

Search for Another Location

Airport or City:

Trip Planner

Search our weather history database for the weather conditions in past years. The results will help you decide how hot, cold, wet, or windy it might be!

Date:

Astronomy

Nov. 18, 2012 Rise Set
Actual Time 7:47 AM CST 4:49 PM CST
Civil Twilight 7:12 AM CST 5:24 PM CST
Nautical Twilight 6:34 AM CST 6:03 PM CST
Astronomical Twilight 5:56 AM CST 6:40 PM CST
Moon 12:10 PM CST (11/18) 10:18 PM CST (11/18)
Length of Visible Light 10h 11m
Length of Day
9h 01m
Waxing Crescent, 30% of the Moon is Illuminated
Nov 18
Waxing Crescent
Nov 20
First Quarter
Nov 28
Full
Dec 6
Last Quarter
Dec 13
New

Hourly Weather History & Observations

Time (CST) Temp. Windchill Dew Point Humidity Pressure Visibility Wind Dir Wind Speed Gust Speed Precip Events Conditions
12:15 AM 17.6 °F 10.7 °F 17.6 °F 100% 30.00 in 0.8 mi SE 4.6 mph - N/A   Mist
12:35 AM 17.6 °F 9.3 °F 17.6 °F 100% 29.99 in 0.2 mi SE 5.8 mph - N/A Fog Light Freezing Fog
12:55 AM 17.6 °F 8.2 °F 17.6 °F 100% 29.99 in 1.0 mi SSE 6.9 mph - N/A   Clear
1:15 AM 17.6 °F 10.7 °F 17.6 °F 100% 29.98 in 3.0 mi SE 4.6 mph - N/A   Partly Cloudy
1:55 AM 17.6 °F 10.7 °F 17.6 °F 100% 29.98 in 0.2 mi SSE 4.6 mph - N/A Fog Light Freezing Fog
2:15 AM 17.6 °F 8.2 °F 17.6 °F 100% 29.98 in 0.2 mi SE 6.9 mph - N/A Fog Light Freezing Fog
2:35 AM 17.6 °F 9.3 °F 17.6 °F 100% 29.98 in 0.2 mi SE 5.8 mph - N/A Fog Light Freezing Fog
2:55 AM 19.4 °F 11.5 °F 19.4 °F 100% 29.97 in 0.2 mi SE 5.8 mph - N/A Fog Light Freezing Fog
3:15 AM 19.4 °F 12.8 °F 19.4 °F 100% 29.97 in 0.2 mi SE 4.6 mph - N/A Fog Light Freezing Fog
3:35 AM 19.4 °F 12.8 °F 19.4 °F 100% 29.97 in 0.2 mi SE 4.6 mph - N/A Fog Light Freezing Fog
3:55 AM 19.4 °F 10.4 °F 19.4 °F 100% 29.96 in 0.2 mi ESE 6.9 mph - N/A Fog Light Freezing Fog
4:15 AM 19.4 °F 11.5 °F 19.4 °F 100% 29.96 in 0.2 mi SSE 5.8 mph - N/A Fog Light Freezing Fog
4:35 AM 19.4 °F 12.8 °F 19.4 °F 100% 29.96 in 0.2 mi SE 4.6 mph - N/A Fog Light Freezing Fog
4:55 AM 19.4 °F 9.5 °F 19.4 °F 100% 29.96 in 0.2 mi SSE 8.1 mph - N/A Fog Light Freezing Fog
5:15 AM 19.4 °F 10.4 °F 19.4 °F 100% 29.96 in 0.2 mi SSE 6.9 mph - N/A Fog Light Freezing Fog
5:35 AM 21.2 °F 11.7 °F 21.2 °F 100% 29.96 in 0.2 mi SE 8.1 mph - N/A Fog Light Freezing Fog
5:55 AM 19.4 °F 12.8 °F 19.4 °F 100% 29.95 in 0.2 mi ESE 4.6 mph - N/A Fog Light Freezing Fog
6:15 AM 19.4 °F 11.5 °F 19.4 °F 100% 29.95 in 0.2 mi SE 5.8 mph - N/A Fog Light Freezing Fog
6:35 AM 17.6 °F 9.3 °F 17.6 °F 100% 29.94 in 0.2 mi SE 5.8 mph - N/A Fog Light Freezing Fog
6:55 AM 19.4 °F 9.5 °F 19.4 °F 100% 29.94 in 0.2 mi SSE 8.1 mph - N/A Fog Light Freezing Fog
7:15 AM 17.6 °F 9.3 °F 17.6 °F 100% 29.93 in 0.2 mi ESE 5.8 mph - N/A Fog Light Freezing Fog
7:35 AM 19.4 °F 11.5 °F 19.4 °F 100% 29.93 in 0.2 mi SSE 5.8 mph - N/A Fog Light Freezing Fog
7:55 AM 17.6 °F 8.2 °F 17.6 °F 100% 29.93 in 0.2 mi SSE 6.9 mph - N/A Fog Light Freezing Fog
8:15 AM 17.6 °F 8.2 °F 17.6 °F 100% 29.93 in 0.2 mi SE 6.9 mph - N/A Fog Light Freezing Fog
8:35 AM 19.4 °F 10.4 °F 19.4 °F 100% 29.93 in 0.2 mi SSE 6.9 mph - N/A Fog Light Freezing Fog
8:55 AM 23.0 °F 18.4 °F 23.0 °F 100% 29.94 in 0.2 mi South 3.5 mph - N/A Fog Light Freezing Fog
9:15 AM 23.0 °F 18.4 °F 23.0 °F 100% 29.94 in 0.2 mi SE 3.5 mph - N/A Fog Light Freezing Fog
9:35 AM 23.0 °F 17.0 °F 23.0 °F 100% 29.93 in 0.2 mi ESE 4.6 mph - N/A Fog Light Freezing Fog
9:55 AM 24.8 °F 19.1 °F 24.8 °F 100% 29.93 in 0.2 mi ESE 4.6 mph - N/A Fog Light Freezing Fog
10:15 AM 26.6 °F 22.6 °F 26.6 °F 100% 29.93 in 0.8 mi ESE 3.5 mph - N/A Rain Light Freezing Rain
10:35 AM 28.4 °F 24.6 °F 28.4 °F 100% 29.93 in 2.0 mi SE 3.5 mph - N/A Rain Light Freezing Rain
10:55 AM 30.2 °F 26.7 °F 30.2 °F 100% 29.92 in 2.5 mi ESE 3.5 mph - N/A   Clear
11:15 AM 32.0 °F 27.5 °F 32.0 °F 100% 29.92 in 2.5 mi SE 4.6 mph - N/A Rain Light Rain
11:35 AM 32.0 °F - 32.0 °F 100% 29.92 in 3.0 mi Calm Calm - N/A   Clear
11:55 AM 32.0 °F 25.6 °F 32.0 °F 100% 29.91 in 4.0 mi SE 6.9 mph - N/A   Clear
12:15 PM 32.0 °F 24.2 °F 32.0 °F 100% 29.90 in 5.0 mi SE 9.2 mph - N/A   Clear
12:35 PM 32.0 °F 23.6 °F 32.0 °F 100% 29.90 in 5.0 mi SE 10.4 mph - N/A   Clear
12:55 PM 32.0 °F 24.8 °F 32.0 °F 100% 29.89 in 4.0 mi SE 8.1 mph - N/A   Clear
1:15 PM 32.0 °F 24.8 °F 32.0 °F 100% 29.89 in 4.0 mi SE 8.1 mph - N/A   Clear
1:35 PM 32.0 °F 24.8 °F 32.0 °F 100% 29.89 in 3.0 mi SE 8.1 mph - N/A   Clear
1:55 PM 32.0 °F 25.6 °F 32.0 °F 100% 29.88 in 3.0 mi SE 6.9 mph - N/A   Clear
2:15 PM 33.8 °F 28.6 °F 33.8 °F 100% 29.88 in 4.0 mi ESE 5.8 mph - N/A   Clear
2:35 PM 32.0 °F 25.6 °F 32.0 °F 100% 29.87 in 4.0 mi SE 6.9 mph - N/A   Clear
2:55 PM 33.8 °F 26.4 °F 33.8 °F 100% 29.87 in 5.0 mi ESE 9.2 mph - N/A   Clear
3:15 PM 33.8 °F 26.4 °F 33.8 °F 100% 29.87 in 5.0 mi SE 9.2 mph - N/A   Clear
3:35 PM 33.8 °F 25.3 °F 33.8 °F 100% 29.86 in 5.0 mi ESE 11.5 mph - N/A   Clear
3:55 PM 32.0 °F 23.0 °F 32.0 °F 100% 29.87 in 5.0 mi SE 11.5 mph - N/A   Clear
4:15 PM 32.0 °F 23.0 °F 32.0 °F 100% 29.88 in 5.0 mi SSE 11.5 mph - N/A   Clear
4:35 PM 32.0 °F 23.6 °F 32.0 °F 100% 29.88 in 5.0 mi SE 10.4 mph - N/A   Clear
4:55 PM 32.0 °F 23.6 °F 32.0 °F 100% 29.87 in 4.0 mi ESE 10.4 mph - N/A   Clear
5:15 PM 30.2 °F 20.2 °F 30.2 °F 100% 29.88 in 3.0 mi SE 12.7 mph - N/A   Clear
5:35 PM 30.2 °F 20.8 °F 30.2 °F 100% 29.87 in 4.0 mi SE 11.5 mph - N/A   Clear
5:55 PM 28.4 °F 19.1 °F 28.4 °F 100% 29.87 in 4.0 mi SE 10.4 mph - N/A   Clear
6:15 PM 28.4 °F 18.5 °F 28.4 °F 100% 29.87 in 4.0 mi SSE 11.5 mph - N/A   Clear
6:35 PM 32.0 °F 22.1 °F 32.0 °F 100% 29.87 in 5.0 mi SSE 13.8 mph - N/A   Clear
6:55 PM 32.0 °F 22.1 °F 32.0 °F 100% 29.87 in 5.0 mi SSE 13.8 mph - N/A   Clear
7:15 PM 32.0 °F 21.6 °F 32.0 °F 100% 29.87 in 5.0 mi SSE 15.0 mph - N/A   Clear
7:35 PM 32.0 °F 22.1 °F 32.0 °F 100% 29.86 in 4.0 mi SSE 13.8 mph - N/A   Clear
7:55 PM 32.0 °F 21.6 °F 32.0 °F 100% 29.85 in 6.0 mi SSE 15.0 mph - N/A   Clear
8:15 PM 32.0 °F 22.1 °F 32.0 °F 100% 29.85 in 8.0 mi SSE 13.8 mph - N/A   Clear
8:35 PM 32.0 °F 22.5 °F 32.0 °F 100% 29.85 in 9.0 mi SSE 12.7 mph - N/A   Clear
8:55 PM 32.0 °F 23.0 °F 32.0 °F 100% 29.85 in 8.0 mi SSE 11.5 mph - N/A   Clear
9:15 PM 33.8 °F 25.8 °F 33.8 °F 100% 29.85 in 10.0 mi South 10.4 mph - N/A   Clear
9:35 PM 33.8 °F 27.0 °F 33.8 °F 100% 29.85 in 10.0 mi South 8.1 mph - N/A   Clear
9:55 PM 33.8 °F 26.4 °F 33.8 °F 100% 29.85 in 10.0 mi South 9.2 mph - N/A   Clear
10:35 PM 32.0 °F 25.6 °F 32.0 °F 100% 29.85 in 9.0 mi SSW 6.9 mph - N/A   Clear
10:55 PM 30.2 °F 23.4 °F 30.2 °F 100% 29.84 in 7.0 mi SW 6.9 mph - N/A   Clear
11:15 PM 28.4 °F 20.4 °F 28.4 °F 100% 29.84 in 5.0 mi SSW 8.1 mph - N/A   Clear
11:55 PM 28.4 °F 19.7 °F 28.4 °F 100% 29.83 in 4.0 mi South 9.2 mph - N/A   Clear